Wind_Speed
64 60 55 51 52 48 49 44 43 47 48 47 44 39 44 42 43 46 38 36 35 30 28 27 25 26 26 24 23 22 21 22 23 25 28 30 32 34 35 37 42 44 44 44 43
63 59 60 56 51 49 48 46 46 47 49 48 46 44 42 46 49 48 46 43 36 34 33 30 29 27 29 32 32 27 24 24 27 28 29 32 35 37 37 39 43 45 46 50 47
66 61 60 63 60 56 52 51 50 49 51 50 47 44 44 44 48 54 47 45 43 40 37 36 32 34 34 31 31 29 28 28 28 32 32 35 35 36 39 41 45 47 49 51 52
73 71 65 63 67 61 56 53 52 54 53 52 51 50 45 43 49 50 48 46 45 44 41 39 39 38 36 34 33 31 30 33 32 32 36 37 37 37 40 43 46 47 50 52 55
77 76 74 69 74 71 65 58 56 57 56 54 52 52 54 44 47 50 51 51 49 49 49 43 39 41 38 33 33 33 34 35 34 35 37 40 41 40 41 42 46 49 52 54 54
86 83 75 78 72 74 77 68 61 59 59 56 58 57 55 54 50 48 50 52 56 54 52 51 49 45 41 38 37 37 38 37 37 39 39 40 41 40 44 45 47 49 52 55 55
91 90 88 78 78 82 82 80 77 66 64 59 60 60 61 58 56 52 52 53 56 54 51 52 49 47 46 42 41 39 42 40 39 42 43 45 45 39 44 46 47 52 54 56 56
108 100 95 96 88 87 83 82 87 83 70 67 63 64 64 63 60 59 57 57 55 58 55 51 50 52 51 48 45 43 45 42 45 45 46 47 50 41 42 47 48 51 56 57 57
109 110 105 104 103 97 96 95 95 90 79 77 74 68 67 67 67 64 65 60 57 58 59 57 55 56 57 55 50 48 48 48 49 48 49 50 53 47 45 50 51 52 57 57 59
116 113 110 111 108 105 102 99 103 100 92 82 79 75 73 71 72 70 71 68 62 61 61 61 57 59 62 58 56 56 52 49 52 50 51 53 57 53 48 52 55 55 57 58 58
118 113 113 111 108 107 107 110 105 106 101 91 87 83 81 77 75 75 72 71 68 66 65 57 55 61 57 58 61 61 57 58 54 52 54 54 59 58 54 55 58 60 60 56 59
121 119 113 111 110 111 108 108 109 106 106 96 89 89 85 85 83 81 84 80 77 73 69 68 63 63 62 60 60 62 63 63 60 56 57 59 59 60 57 59 61 63 63 60 59
117 118 116 115 117 116 110 110 113 111 108 108 101 98 95 91 88 88 89 87 83 83 78 75 73 69 68 66 60 60 61 63 64 64 60 62 63 62 60 61 63 66 61 61 60
124 119 117 118 119 119 116 114 114 111 111 109 106 97 96 97 95 92 90 89 89 87 83 79 77 74 73 73 70 64 62 60 57 59 63 66 64 67 67 66 69 64 62 61 59
118 121 122 119 115 122 123 120 116 112 114 111 105 102 103 100 97 98 97 92 90 89 85 83 82 78 77 75 76 71 69 67 65 61 61 66 66 72 72 70 68 64 63 60 58
119 115 115 120 124 115 118 118 122 122 117 111 106 108 107 106 102 101 101 101 98 93 90 84 85 85 82 81 78 78 77 74 72 67 63 67 68 74 74 73 68 64 60 58 54
120 117 114 112 118 123 121 115 117 121 115 111 111 111 112 110 107 104 102 102 100 97 92 93 90 88 86 84 83 81 81 79 75 72 67 69 68 74 76 72 64 62 61 55 54
124 122 120 120 120 115 121 125 122 115 111 110 108 111 112 114 110 108 105 104 103 99 96 94 94 91 87 86 86 85 86 84 77 73 70 71 68 73 75 68 63 62 57 50 50
130 129 126 125 124 123 119 118 112 111 113 103 108 111 111 110 112 111 110 107 106 102 99 97 96 94 93 92 92 89 88 88 83 78 78 74 70 73 73 70 66 57 53 51 52
120 127 131 132 132 130 127 120 109 103 101 105 112 108 108 110 112 113 113 109 108 106 104 101 99 96 95 95 95 91 90 90 88 82 79 73 67 68 74 71 61 55 53 53 49
112 115 119 128 135 138 132 120 113 111 107 102 104 109 114 107 105 106 107 105 107 108 105 100 98 94 96 94 94 94 89 90 88 80 74 70 68 70 69 66 61 57 55 51 45
104 106 108 115 124 127 131 127 122 118 115 112 108 108 105 106 110 116 112 108 102 103 102 102 103 99 98 97 98 94 86 86 85 81 78 74 67 67 71 72 65 61 55 50 46
95 98 102 109 106 109 117 127 128 127 121 120 116 114 107 102 100 101 99 99 100 103 103 98 99 97 89 88 88 85 85 88 87 87 72 71 66 68 71 71 70 65 60 53 43
99 93 92 96 96 97 100 106 116 126 127 130 125 120 118 112 108 105 100 98 97 94 93 89 86 84 86 90 90 88 88 88 88 86 80 75 73 74 72 73 71 64 60 52 46
101 93 89 85 82 84 87 90 99 111 116 126 130 130 127 123 121 114 110 110 107 104 106 103 100 100 101 101 102 97 96 96 91 90 84 80 78 71 73 77 71 65 63 56 48
102 95 90 87 85 81 79 80 83 90 99 108 113 121 132 134 131 126 124 122 119 117 114 112 111 109 107 108 107 104 101 102 103 100 96 95 80 83 88 84 75 69 67 69 54
102 97 94 91 88 83 76 77 76 79 82 87 94 100 104 108 111 119 125 123 124 121 121 118 118 119 119 117 117 108 107 108 107 106 105 99 93 99 97 86 79 74 71 64 53
Wind_Direction
241 244 238 239 240 247 247 250 252 256 256 257 257 257 258 258 265 269 268 271 275 272 274 282 284 273 274 282 290 299 311 317 330 330 331 336 338 341 340 338 342 345 346 348 340
239 242 241 239 241 245 243 247 253 255 260 260 256 258 255 255 261 263 266 266 270 265 267 274 283 278 271 274 280 286 302 306 317 325 326 329 331 333 334 335 341 342 342 342 343
236 240 248 244 241 246 246 246 249 254 257 261 256 257 259 256 261 263 260 263 266 267 267 269 273 279 282 278 281 283 292 301 311 315 318 326 327 336 336 332 337 338 337 339 341
242 241 247 246 244 242 243 243 246 253 257 261 256 257 258 258 258 262 258 258 265 268 266 267 268 274 273 280 281 282 291 295 302 308 312 319 321 326 333 330 334 333 333 336 338
236 239 246 249 246 244 244 248 248 254 259 258 257 256 256 258 258 257 258 258 260 266 267 265 266 273 270 279 281 282 291 295 296 305 306 312 317 320 325 327 330 334 332 333 335
233 233 240 242 245 250 244 249 253 254 257 257 257 259 258 254 254 258 257 259 256 259 264 267 263 271 265 273 283 286 286 291 299 302 304 309 312 319 318 321 325 329 328 329 330
235 237 235 240 243 247 246 248 253 255 256 257 259 259 257 255 253 253 261 263 265 261 261 261 265 264 265 270 277 283 287 289 298 300 299 304 307 315 315 317 323 323 325 327 328
240 241 238 242 240 244 248 251 253 254 255 254 256 257 254 255 252 255 256 263 266 262 262 261 264 264 265 267 272 277 282 288 295 296 299 301 305 311 314 314 319 321 323 324 326
234 239 239 242 244 244 246 249 252 254 256 255 256 254 252 256 257 255 255 257 262 263 263 264 266 260 264 266 271 272 281 283 288 298 295 299 300 308 312 309 315 318 320 320 321
236 234 240 243 243 244 244 245 251 254 254 254 253 252 251 253 254 260 258 260 261 263 264 266 261 260 263 267 268 270 275 281 288 293 296 298 298 305 308 307 309 314 317 317 318
234 235 239 238 239 239 242 246 246 251 251 253 253 252 250 251 252 255 259 263 261 262 260 263 264 266 268 267 266 272 273 281 285 288 295 297 297 301 306 306 306 310 315 316 317
235 235 235 236 240 238 238 241 240 244 250 250 248 250 250 251 254 254 257 259 261 263 263 261 262 267 268 270 273 273 274 279 281 285 293 294 296 297 300 304 306 308 312 314 319
238 237 237 236 238 237 236 240 241 243 246 248 247 247 250 250 251 254 258 258 257 261 263 263 262 264 264 269 272 276 276 280 281 282 288 294 294 297 299 302 305 308 310 314 318
235 237 239 239 240 239 240 241 241 242 244 245 244 245 248 250 251 254 256 257 257 258 261 261 262 264 265 266 271 273 275 280 284 287 285 287 289 291 297 301 305 306 310 313 315
236 235 237 239 242 242 242 242 243 244 246 247 247 247 247 249 249 251 253 254 256 258 260 260 262 265 266 266 268 270 275 278 279 284 286 286 288 291 294 299 303 306 307 312 314
238 239 238 238 237 239 242 244 246 246 248 247 247 249 250 251 251 250 254 255 257 259 259 259 261 263 265 267 268 270 273 277 278 280 284 286 288 288 292 296 300 303 307 312 317
239 239 240 241 239 237 238 240 242 246 246 245 246 249 250 251 251 252 254 257 259 261 262 262 262 263 266 268 268 269 273 278 281 281 281 285 288 286 290 295 299 302 306 314 319
237 238 238 239 242 242 240 237 240 242 245 247 247 248 250 250 251 253 254 257 258 260 260 262 264 264 267 268 268 269 274 276 279 279 282 285 287 288 291 292 297 302 306 311 317
236 236 237 238 240 243 243 242 241 241 241 243 245 247 248 249 251 253 254 257 258 259 261 262 264 264 264 264 268 271 273 274 276 279 282 284 286 287 287 290 295 301 305 310 314
239 237 237 238 238 239 242 242 243 246 247 244 241 245 248 250 252 253 255 256 258 259 260 263 263 263 263 265 268 271 273 275 277 277 280 281 282 283 285 290 296 299 303 308 313
238 238 239 239 239 239 242 241 242 242 243 246 248 247 244 246 248 252 255 256 258 258 260 261 262 262 264 266 268 271 271 273 273 276 277 279 281 285 290 292 296 298 302 306 309
238 238 238 240 241 241 242 241 241 240 240 240 244 250 249 248 251 248 249 252 253 256 258 259 261 262 265 266 268 269 271 272 274 279 279 283 288 288 289 290 293 296 300 302 297
236 237 238 239 240 241 241 240 242 242 241 241 242 242 244 248 251 254 255 255 256 257 258 259 260 261 263 267 271 273 276 276 279 283 284 284 286 284 284 285 289 291 293 292 290
236 236 238 241 241 241 242 243 243 241 242 241 241 242 243 245 244 249 252 252 253 255 257 258 258 260 260 264 265 268 270 270 274 277 277 280 281 282 282 281 280 282 284 283 281
235 236 237 239 241 241 241 243 243 242 243 244 244 243 244 245 245 246 247 249 250 250 251 251 252 255 258 262 263 265 267 269 272 270 272 273 273 273 274 273 275 276 280 278 273
233 234 235 237 238 240 241 242 243 244 244 244 244 245 246 245 246 247 248 248 250 252 251 253 253 257 260 262 262 262 266 267 269 270 269 270 270 269 269 272 270 270 274 278 271
232 231 233 235 237 238 241 242 243 244 245 245 245 248 248 249 249 249 248 249 249 251 253 256 255 258 259 262 261 262 267 267 268 268 267 266 266 272 271 269 267 267 272 270 260
Height
10752 10757 10761 10765 10768 10772 10777 10780 10783 10787 10790 10793 10796 10798 10801 10803 10803 10804 10805 10806 10807 10808 10808 10808 10808 10808 10808 10808 10807 10806 10805 10803 10801 10799 10796 10794 10791 10787 10783 10779 10776 10772 10768 10764 10759
10740 10746 10751 10755 10759 10762 10766 10770 10774 10777 10780 10784 10787 10790 10792 10795 10797 10798 10799 10800 10801 10801 10802 10802 10802 10803 10803 10802 10802 10801 10800 10798 10797 10795 10793 10790 10787 10784 10780 10775 10772 10768 10764 10759 10754
10728 10734 10739 10744 10748 10753 10756 10760 10764 10768 10771 10774 10779 10781 10784 10787 10789 10790 10791 10793 10793 10795 10795 10796 10797 10798 10798 10797 10796 10795 10795 10794 10793 10790 10788 10786 10782 10779 10775 10771 10768 10764 10759 10754 10749
10714 10721 10726 10732 10737 10741 10745 10749 10753 10757 10761 10764 10768 10772 10775 10777 10780 10782 10784 10785 10786 10788 10789 10789 10790 10791 10792 10791 10790 10789 10789 10788 10787 10785 10783 10781 10778 10775 10771 10765 10762 10760 10755 10750 10743
10700 10707 10713 10717 10725 10729 10734 10738 10743 10746 10750 10754 10758 10762 10765 10768 10771 10773 10775 10777 10779 10780 10781 10782 10783 10784 10785 10785 10783 10783 10783 10781 10780 10780 10777 10775 10773 10769 10765 10760 10756 10752 10748 10744 10739
10683 10690 10699 10705 10711 10715 10721 10726 10729 10734 10739 10743 10747 10751 10755 10759 10761 10763 10766 10769 10771 10772 10773 10774 10775 10776 10777 10777 10776 10776 10775 10775 10774 10774 10770 10769 10766 10764 10759 10754 10750 10746 10741 10736 10731
10666 10673 10681 10688 10696 10703 10706 10712 10715 10721 10726 10731 10735 10739 10743 10748 10751 10752 10756 10758 10760 10763 10765 10765 10767 10769 10768 10770 10769 10770 10768 10767 10768 10767 10765 10762 10759 10760 10753 10748 10744 10740 10735 10729 10724
10648 10656 10664 10672 10678 10686 10692 10696 10700 10707 10712 10717 10722 10727 10732 10737 10739 10743 10745 10748 10750 10752 10756 10758 10759 10760 10760 10761 10762 10763 10760 10760 10761 10760 10758 10755 10748 10755 10748 10741 10739 10734 10729 10723 10717
10626 10636 10644 10652 10659 10667 10673 10680 10685 10689 10699 10704 10708 10714 10720 10725 10728 10730 10734 10736 10740 10743 10746 10748 10749 10750 10749 10751 10755 10752 10752 10752 10753 10753 10751 10748 10741 10746 10743 10733 10732 10728 10721 10716 10711
10606 10613 10624 10631 10640 10649 10654 10661 10668 10674 10682 10689 10693 10699 10707 10709 10715 10719 10721 10724 10728 10732 10733 10737 10740 10738 10734 10744 10745 10742 10743 10742 10743 10745 10742 10740 10734 10735 10735 10727 10722 10721 10716 10709 10704
10585 10591 10602 10610 10618 10626 10634 10642 10651 10657 10663 10671 10680 10685 10690 10694 10698 10705 10708 10711 10714 10717 10720 10724 10727 10722 10731 10732 10734 10733 10733 10733 10734 10736 10734 10732 10726 10725 10725 10721 10714 10711 10708 10704 10697
10560 10570 10579 10586 10596 10603 10611 10620 10627 10637 10643 10653 10661 10669 10675 10679 10683 10689 10695 10699 10701 10704 10708 10712 10713 10712 10716 10719 10722 10723 10724 10723 10725 10727 10727 10723 10717 10718 10716 10710 10707 10703 10699 10695 10690
10539 10549 10556 10565 10571 10580 10589 10597 10605 10614 10624 10632 10641 10650 10655 10662 10667 10673 10678 10684 10687 10691 10692 10698 10701 10700 10704 10707 10710 10711 10712 10713 10716 10718 10718 10715 10710 10706 10707 10703 10698 10694 10691 10687 10681
10515 10523 10531 10539 10549 10560 10568 10576 10583 10592 10599 10612 10618 10633 10639 10645 10652 10658 10661 10665 10669 10673 10678 10686 10687 10688 10692 10694 10698 10700 10700 10702 10705 10708 10708 10705 10705 10692 10697 10694 10690 10685 10682 10678 10672
10486 10499 10507 10515 10527 10539 10544 10554 10561 10569 10573 10592 10605 10618 10620 10623 10638 10636 10641 10646 10653 10656 10663 10670 10673 10675 10676 10679 10684 10687 10687 10690 10694 10696 10697 10692 10694 10682 10684 10684 10681 10677 10673 10669 10663
10461 10472 10480 10487 10504 10515 10522 10529 10535 10537 10560 10581 10592 10595 10601 10607 10613 10620 10620 10627 10634 10640 10647 10655 10657 10658 10662 10664 10669 10672 10673 10676 10681 10683 10688 10679 10683 10673 10674 10673 10671 10669 10665 10661 10656
10435 10447 10455 10464 10474 10489 10494 10501 10504 10513 10552 10564 10573 10575 10579 10584 10591 10596 10602 10608 10614 10622 10632 10632 10639 10644 10648 10650 10654 10656 10659 10663 10667 10669 10673 10669 10671 10664 10662 10663 10661 10660 10656 10652 10648
10407 10419 10430 10440 10448 10452 10465 10475 10482 10516 10528 10542 10549 10553 10559 10563 10570 10576 10584 10590 10597 10603 10610 10612 10620 10627 10635 10635 10637 10641 10645 10646 10651 10656 10659 10659 10660 10651 10649 10651 10651 10650 10648 10643 10639
10375 10388 10405 10415 10420 10426 10435 10444 10478 10498 10506 10514 10524 10528 10535 10541 10547 10554 10563 10570 10575 10584 10588 10595 10604 10608 10614 10616 10618 10627 10630 10628 10635 10641 10646 10647 10646 10637 10635 10639 10640 10639 10637 10635 10632
10346 10360 10375 10383 10390 10396 10402 10428 10462 10474 10478 10489 10497 10507 10516 10521 10528 10533 10539 10550 10555 10564 10570 10577 10584 10590 10594 10597 10602 10607 10609 10613 10617 10625 10631 10636 10634 10625 10621 10626 10626 10627 10627 10624 10623
10318 10332 10347 10353 10359 10365 10385 10423 10441 10448 10455 10464 10473 10481 10494 10499 10504 10512 10521 10530 10535 10540 10548 10558 10561 10569 10572 10579 10581 10586 10594 10594 10597 10607 10614 10619 10621 10618 10609 10607 10611 10615 10616 10615 10614
10293 10308 10317 10323 10331 10353 10378 10395 10412 10416 10429 10440 10448 10454 10466 10475 10481 10491 10499 10508 10514 10521 10526 10533 10544 10551 10554 10558 10562 10566 10571 10573 10577 10585 10594 10602 10607 10603 10598 10591 10595 10601 10606 10606 10606
10268 10281 10289 10296 10317 10337 10354 10368 10380 10390 10402 10413 10422 10432 10445 10453 10460 10465 10474 10482 10490 10498 10503 10509 10524 10530 10536 10537 10541 10545 10548 10550 10556 10565 10578 10582 10592 10587 10586 10582 10580 10585 10590 10594 10595
10244 10260 10272 10284 10305 10318 10332 10343 10350 10363 10372 10385 10395 10409 10421 10432 10440 10448 10455 10461 10468 10475 10481 10487 10499 10508 10515 10521 10525 10530 10533 10536 10542 10553 10559 10567 10571 10571 10570 10566 10567 10571 10575 10580 10583
10225 10246 10259 10273 10286 10296 10307 10317 10324 10335 10344 10356 10369 10384 10392 10402 10413 10425 10433 10438 10445 10454 10460 10470 10479 10487 10493 10500 10506 10513 10518 10519 10527 10534 10542 10549 10554 10556 10550 10540 10554 10558 10561 10565 10568
10210 10228 10242 10252 10260 10273 10284 10299 10302 10307 10318 10331 10342 10350 10360 10372 10388 10397 10408 10415 10422 10432 10438 10448 10459 10464 10469 10471 10480 10492 10500 10502 10506 10509 10518 10522 10540 10531 10525 10532 10539 10542 10545 10551 10554
10189 10207 10220 10232 10243 10256 10275 10277 10282 10286 10295 10306 10317 10325 10341 10349 10357 10369 10380 10391 10402 10410 10416 10425 10432 10436 10442 10442 10452 10472 10477 10474 10480 10485 10487 10498 10511 10504 10511 10520 10523 10525 10530 10537 10541